Regional Weather Roundup
Issued by NWS

Home | Current Version | Previous Version | Graphics & Text | Print | Product List | Glossary On
Versions: 1 2 3 4 5 6 7 8 9 10 11 12 13 14 15 16 17 18 19 20 21 22 23 24 25 26 27 28 29 30 31 32 33 34 35 36 37 38 39 40 41 42 43 44 45 46 47 48 49 50
000
ASUS44 KMEG 312010
RWRTN
TENNESSEE HOURLY STATE WEATHER ROUNDUP
NATIONAL WEATHER SERVICE MEMPHIS TN
300 PM CDT MON AUG 31 2015

TNZ002-004-019-021-049-052-054-088>092-312100-
WEST TENNESSEE

CITY           SKY/WX    TMP DP  RH WIND       PRES   REMARKS
MEMPHIS INTL   PTSUNNY   90  69  50 SW3       30.06F HX  94
NWS MEMPHIS      N/A     90 N/A N/A MISG        N/A
JACKSON        SUNNY     86  65  49 E5        30.08F
DYERSBURG      SUNNY     84  70  61 E6        30.08S
UNION CITY     SUNNY     88  68  51 E5        30.06F HX  91
PARIS          SUNNY     84  64  51 VRB6      30.10F
LEXINGTON      MOSUNNY   84  64  51 S5        30.08F
$$

TNZ008-025-027-028-033-062-065-066-312100-
NORTH MIDDLE TENNESSEE

CITY           SKY/WX    TMP DP  RH WIND       PRES   REMARKS
NASHVILLE      PTSUNNY   86  62  44 SE5       30.10F
CLARKSVILLE    MOSUNNY   86  63  45 VRB3      30.09F
SMYRNA         MOSUNNY   94  66  39 E9        30.10F HX  97
COOKEVILLE     PTSUNNY   88  70  55 N5        30.11F HX  92
CROSSVILLE     PTSUNNY   79  63  57 E3        30.16F
$$

TNZ061-075-076-078-094-096-097-312100-
SOUTH MIDDLE TENNESSEE

CITY           SKY/WX    TMP DP  RH WIND       PRES   REMARKS
FAYETTEVILLE     N/A     79  64  61 E3        30.11F
TULLAHOMA      PTSUNNY   81  64  57 CALM      30.13F
WINCHESTER     PTSUNNY   81  66  61 CALM      30.12S
MCMINNVILLE    SUNNY     82  66  57 CALM      30.12F
COLUMBIA       MOSUNNY   88  68  51 CALM      30.09F HX  91
SHELBYVILLE    MOSUNNY   82  66  57 NW3       30.11F
$$

TNZ017-018-042-046-047-312100-
NORTHEAST TENNESSEE

CITY           SKY/WX    TMP DP  RH WIND       PRES   REMARKS
TRI CITIES     MOSUNNY   82  60  47 SE3       30.12F
ELIZABETHTON   MOCLDY    82  64  54 NE7       30.12F
$$

TNZ012-013-036-069-073-074-312100-
CENTRAL EAST TENNESSEE

CITY           SKY/WX    TMP DP  RH WIND       PRES   REMARKS
KNOXVILLE      MOSUNNY   85  61  44 N6        30.10F
OAK RIDGE      MOSUNNY   86  64  47 VRB3      30.11F
GATLINBURG     MOCLDY    82  61  47 VRB6      30.10S
MORRISTOWN       N/A     82  63  51 CALM      30.13F
$$

TNZ083-085-099-312100-
SOUTHEAST TENNESSEE

CITY           SKY/WX    TMP DP  RH WIND       PRES   REMARKS
CHATTANOOGA    MOSUNNY   85  65  51 E5        30.10F
$$

SKY/WX REPORTED AS FAIR MEANS FEW OR NO CLOUDS BELOW
12 THOUSAND FEET.




USA.gov is the U.S. government's official web portal to all federal, state and local government web resources and services.